Location: Clarks Summit,Pa.
(41.5000°N, 75.6000°W)
Time: 02:32:21
(UTC-05:00)

Tiangong 2 - Visible Passes

Search period start: 21 February 2018 00:00
Search period end: 03 March 2018 00:00
Orbit: 384 x 388 km, 42.8° (Epoch: 20 February)

Date Brightness Start Highest point End Pass type
(mag) Time Alt. Az. Time Alt. Az. Time Alt. Az.
21 Feb 2.5 19:01:16 10° W 19:04:11 33° SSW 19:05:47 20° SSE visible
22 Feb 3.9 19:40:18 10° WSW 19:41:35 12° SW 19:42:17 11° SSW visible
23 Feb 3.5 18:40:24 10° W 18:42:50 20° SSW 18:45:15 10° SSE visible
25 Feb 4.2 18:20:10 10° WSW 18:21:22 12° SW 18:22:33 10° SSW visible
